Theta_e
342 342 342 342 343 342 335 340 342 343 343 343 344 344 344 343 338 333 337 336 328 333 334 333 334 338 337 345 347 342 340 337 334 333 333 330 329 328 329 328 327 324 318
336 338 340 339 340 339 335 333 334 337 341 343 344 344 344 344 342 340 339 338 329 333 335 334 335 334 340 345 346 343 342 339 336 334 333 333 330 329 328 328 327 326 324
329 331 333 334 337 339 339 341 340 330 339 341 340 342 342 343 342 343 341 339 339 334 337 338 338 335 334 337 343 344 343 341 338 335 334 334 332 329 329 328 328 327 326
330 331 331 332 333 334 336 340 340 337 342 342 342 342 343 340 339 339 341 342 340 339 339 340 340 338 335 334 337 340 341 343 341 337 335 334 332 328 328 328 328 328 327
321 325 329 331 331 332 333 334 339 342 342 341 343 341 342 343 341 331 343 341 342 341 340 340 340 339 338 337 335 335 336 340 341 341 337 335 334 330 329 328 330 329 327
312 319 320 326 329 331 332 332 333 339 342 341 341 340 340 341 340 339 341 341 340 341 342 341 341 342 341 338 337 336 337 338 340 341 337 333 335 328 329 331 330 329 328
310 310 311 318 322 326 328 330 332 334 338 340 339 339 340 338 339 338 335 340 340 340 342 342 342 341 340 340 340 340 342 341 342 340 330 333 329 332 329 330 331 330 328
314 310 309 310 311 315 320 325 329 331 333 337 338 336 335 335 335 331 333 331 332 330 333 332 338 340 340 340 340 339 338 341 339 337 337 334 333 330 332 331 332 331 328
313 311 309 310 309 310 312 315 321 327 330 332 334 336 336 335 334 334 334 334 333 333 334 336 336 337 339 340 339 339 338 337 335 337 336 333 333 331 332 332 332 329 327
313 310 309 310 310 311 311 313 315 320 328 330 331 333 335 335 334 335 333 334 334 335 337 339 339 335 332 334 334 334 335 335 335 335 335 335 334 331 330 332 331 329 329
310 310 310 310 310 312 313 313 313 314 323 329 330 332 333 335 334 334 334 334 333 333 332 332 332 333 333 334 333 335 332 332 334 335 332 331 333 331 333 333 330 328 326
310 310 310 311 312 313 313 313 313 313 314 324 328 330 332 333 334 333 334 333 334 334 334 334 335 334 333 330 333 333 335 330 330 330 327 330 332 333 333 330 327 321 310
310 310 310 311 312 313 312 312 312 313 313 316 325 328 331 333 332 332 332 332 332 334 334 334 333 332 331 330 333 334 334 328 329 329 333 333 331 330 328 322 314 307 305
307 307 308 308 309 309 311 311 311 311 316 317 323 327 329 332 332 332 331 330 332 334 333 333 332 332 330 331 333 333 330 330 330 332 330 327 323 318 315 307 306 305 306
304 305 305 306 307 307 309 310 310 311 313 315 318 324 327 329 331 331 331 330 330 333 332 332 331 331 331 331 333 331 331 330 327 325 320 317 311 306 309 308 308 307 307
302 303 304 305 306 306 308 309 310 310 311 313 313 318 324 326 329 329 329 329 330 332 332 330 331 332 331 332 332 331 329 327 324 320 317 314 311 307 309 309 308 308 308
303 303 303 305 306 307 309 309 311 311 311 312 313 315 320 323 324 327 328 328 327 330 332 332 331 331 331 331 331 330 328 323 320 319 314 311 307 310 310 310 309 309 309
303 304 305 305 306 308 309 311 311 312 312 313 314 316 318 320 323 325 326 328 328 328 330 331 330 331 329 330 328 326 324 320 314 316 310 310 311 310 310 309 309 309 310
304 305 306 308 309 311 312 313 313 313 313 312 313 316 318 322 324 324 325 326 328 328 329 331 330 329 328 327 325 323 317 315 310 309 310 308 310 311 310 310 309 309 308
305 306 308 311 313 316 316 315 314 313 314 313 313 315 319 321 324 325 326 326 329 330 331 329 327 326 326 323 322 317 311 309 306 307 307 308 309 310 310 310 310 309 309
306 307 310 313 315 318 318 318 316 315 315 315 315 317 321 323 325 326 327 328 330 330 329 327 328 327 324 317 312 310 309 310 308 309 310 310 310 310 310 310 310 310 310
306 307 309 312 316 318 318 318 316 315 316 317 318 320 322 324 325 328 328 329 330 330 328 328 326 323 317 313 311 310 309 308 310 309 309 309 309 310 310 310 308 309 308
305 306 307 310 313 318 322 319 315 316 317 318 319 321 324 327 327 327 327 326 325 324 323 323 320 318 313 311 309 307 308 308 309 309 309 309 308 308 308 307 308 308 307
304 305 305 307 310 312 316 318 317 318 318 318 319 322 324 324 324 324 322 317 313 312 312 312 311 308 306 306 307 308 308 307 308 308 308 308 307 306 307 307 307 307 307
303 303 303 304 306 306 310 313 314 314 315 314 313 313 314 315 313 312 313 312 310 308 307 307 307 307 307 306 307 306 306 306 307 307 307 306 306 306 307 307 307 306 306
301 302 303 304 304 306 309 310 310 310 311 309 308 308 309 310 310 310 309 308 308 308 307 307 307 307 307 306 306 306 306 306 306 306 306 306 306 306 306 306 306 306 307
Wind_Speed
22 23 23 24 26 26 27 28 28 26 26 24 24 24 26 25 22 22 22 22 25 20 18 18 21 24 25 27 30 29 27 26 25 23 22 18 17 16 15 13 11 10 10
23 25 25 25 25 26 26 32 33 32 32 30 29 27 25 26 25 23 23 20 23 23 22 24 25 24 24 27 31 31 31 29 28 27 25 22 21 19 17 16 15 13 12
21 24 26 26 25 27 29 29 31 29 28 29 29 30 29 29 25 25 27 25 21 23 24 25 25 25 29 27 29 33 34 34 31 30 29 27 25 23 20 18 17 16 15
23 23 23 24 25 27 30 31 29 30 30 31 31 31 30 31 31 31 26 28 29 27 27 27 28 27 27 29 31 34 34 38 37 33 32 31 29 26 22 20 18 17 16
23 25 25 24 25 28 28 27 31 32 33 33 34 32 35 36 35 30 26 28 29 31 32 31 31 30 30 32 33 35 37 39 41 40 37 35 31 29 24 20 18 16 16
25 25 26 28 28 27 26 26 27 29 33 37 38 35 38 34 32 29 28 28 32 30 31 32 32 33 32 36 37 38 40 42 44 42 34 35 37 32 23 21 21 19 20
30 29 28 29 31 32 31 26 25 28 33 33 33 36 37 37 35 34 33 33 31 33 34 35 34 33 32 31 32 35 35 37 38 48 27 41 43 35 27 27 24 24 21
40 38 35 33 32 33 34 33 29 28 32 32 29 33 34 34 34 33 34 32 32 29 30 33 34 36 35 36 37 34 31 33 33 38 37 26 30 28 28 28 27 29 23
41 42 41 40 37 34 33 32 31 29 29 31 30 23 13 16 25 27 21 16 15 17 18 18 19 22 26 29 29 25 26 28 30 40 34 28 36 34 27 26 32 29 27
45 45 43 42 41 37 35 33 30 29 28 26 27 30 30 30 27 27 31 27 24 19 16 16 19 24 23 23 23 22 24 28 31 27 30 30 20 25 27 29 35 33 30
51 49 46 45 41 37 35 34 35 33 29 27 22 23 26 29 32 31 33 31 26 28 28 26 25 24 24 22 21 21 23 21 16 15 18 23 23 21 34 35 35 29 28
56 54 50 45 41 37 34 34 34 36 34 32 28 23 23 24 27 29 32 34 32 32 27 24 22 21 19 19 20 21 17 15 11 15 20 20 18 19 26 27 24 24 25
54 52 45 40 37 33 32 33 34 34 33 33 31 26 22 26 26 26 28 29 30 29 28 28 26 23 22 19 19 17 14 15 17 12 14 15 13 15 18 19 21 22 25
42 41 33 31 30 31 31 31 30 28 24 29 30 30 25 23 25 25 26 25 28 28 28 29 26 23 21 17 17 17 16 18 10 14 11 12 13 14 17 19 20 20 19
34 32 35 32 32 32 31 27 26 28 30 34 33 32 31 26 24 21 20 21 23 24 25 27 24 23 21 17 18 17 18 12 13 13 13 15 14 14 14 13 14 12 11
34 34 32 28 27 29 28 24 25 26 28 28 34 34 33 30 28 24 20 20 20 24 28 23 20 21 18 17 19 17 15 16 17 17 15 14 11 8 8 9 8 6 6
32 31 30 28 28 27 25 25 26 25 25 23 24 27 33 30 32 29 23 20 24 22 25 27 24 21 17 14 16 18 18 18 18 18 12 10 7 8 8 7 4 3 5
30 29 28 27 27 26 25 24 24 23 23 21 20 19 23 27 29 31 27 22 23 25 25 28 26 20 15 14 17 16 20 18 16 15 7 10 10 9 8 6 5 5 5
28 26 24 23 23 23 24 23 23 23 20 24 23 20 22 20 24 25 26 24 22 22 23 24 21 18 15 18 19 18 17 14 10 11 11 12 9 10 11 8 9 10 9
25 23 21 21 21 20 19 19 19 19 16 15 18 19 17 19 19 19 21 20 20 19 19 18 16 15 16 19 17 18 15 12 12 12 13 12 13 13 10 11 12 12 13
23 22 21 19 14 10 11 12 13 16 15 12 11 10 11 13 15 16 16 17 17 20 19 16 15 16 18 20 19 14 11 13 9 6 6 7 8 11 11 12 11 11 12
23 21 19 16 13 12 11 7 7 11 12 10 10 11 11 12 11 12 12 13 18 21 18 18 16 20 20 17 13 11 10 8 10 9 6 6 8 8 9 10 12 14 15
23 23 21 20 18 17 10 5 11 11 13 12 11 13 10 10 10 12 16 16 12 9 7 9 16 14 15 13 10 8 8 6 12 6 7 7 6 6 9 12 17 17 17
24 24 23 21 20 22 14 12 9 8 8 14 15 15 16 16 17 16 17 19 19 17 14 12 11 13 10 10 9 7 4 6 7 4 4 5 7 10 14 15 14 11 9
25 24 25 24 22 18 13 10 6 11 15 19 22 22 22 22 20 18 19 22 22 24 22 19 17 16 14 13 11 8 6 5 5 4 5 5 7 12 13 7 5 5 12
28 29 28 28 27 26 18 24 29 29 29 28 25 23 21 20 17 15 20 26 28 25 21 20 19 18 14 12 12 10 8 5 3 1 2 6 9 8 5 5 5 12 12
Wind_Direction
266 267 269 276 284 284 280 281 276 272 274 267 273 275 276 276 278 264 266 270 256 262 261 266 279 276 264 255 255 262 265 265 264 265 265 265 265 266 269 274 279 287 296
270 269 270 273 274 276 274 275 274 274 275 271 271 269 276 275 271 271 271 277 258 256 262 270 277 276 265 256 256 261 265 265 264 263 262 262 261 262 265 270 276 279 282
277 276 274 274 273 265 266 271 273 268 273 272 273 275 277 273 271 271 267 266 265 259 266 271 276 277 264 261 260 263 266 264 263 260 262 260 258 256 259 263 268 274 279
286 284 284 283 281 274 270 269 265 268 269 274 274 277 279 279 271 273 274 267 261 260 266 274 278 278 272 263 260 263 266 266 265 261 258 257 256 255 258 263 267 271 277
301 294 291 288 284 282 284 281 270 266 266 268 270 272 279 281 281 271 272 272 269 264 265 271 279 279 275 272 275 270 267 266 267 265 258 253 254 251 255 261 272 275 280
326 313 297 288 286 285 282 283 281 271 262 261 267 273 275 278 275 272 270 273 272 271 268 270 275 276 275 276 279 278 272 270 271 270 268 257 264 253 252 260 266 268 277
333 324 313 301 289 285 284 283 283 280 268 262 265 268 270 274 270 267 267 272 272 271 270 270 271 275 277 277 280 281 270 269 272 261 262 280 259 257 246 248 259 263 265
329 326 318 312 301 293 284 280 278 278 274 268 266 265 273 276 271 269 268 275 272 276 276 274 273 270 276 277 278 282 280 264 266 276 277 265 245 257 244 248 261 257 255
320 319 316 311 304 292 288 282 278 275 276 270 266 261 252 259 281 280 273 276 270 276 283 287 279 276 274 272 273 274 277 279 276 275 275 262 268 228 235 242 246 243 248
310 309 308 307 303 293 282 282 277 270 268 271 266 262 252 255 263 280 277 276 270 268 272 278 280 290 294 290 291 284 276 280 285 279 280 269 274 234 237 233 237 243 261
308 310 309 306 299 289 282 275 271 266 259 264 261 263 261 256 250 255 272 276 280 279 282 284 284 284 290 292 291 289 281 268 255 258 255 264 252 230 227 236 236 247 267
309 307 306 302 294 284 278 274 272 268 260 255 259 258 254 254 259 251 255 265 274 278 279 281 284 285 288 294 289 286 266 213 231 246 260 247 252 230 232 231 252 274 284
306 304 303 296 288 280 277 274 272 270 264 255 252 255 251 249 252 255 255 262 270 272 275 276 275 281 285 290 286 272 245 240 279 266 231 209 216 238 249 258 270 277 279
306 306 298 286 282 282 278 279 272 269 257 247 242 243 247 249 253 252 253 259 265 272 268 267 274 278 279 282 265 252 251 276 249 221 222 241 244 251 263 266 274 279 275
296 290 290 278 279 281 284 280 274 274 262 249 243 242 244 244 249 253 253 256 255 258 265 267 267 270 277 270 251 249 265 251 219 216 223 231 240 245 264 270 274 273 264
308 302 299 290 282 280 280 275 271 269 271 263 248 244 244 244 247 254 260 260 259 260 264 268 262 265 261 253 250 253 244 225 221 224 235 243 244 240 250 274 283 280 279
310 305 299 292 286 279 274 271 268 267 267 267 253 245 243 243 248 254 256 262 254 257 254 253 254 251 250 243 238 233 230 228 236 245 262 257 239 229 241 258 253 288 311
315 307 300 294 287 279 275 269 265 261 259 254 251 254 249 244 247 250 251 255 248 250 253 244 238 232 230 228 224 221 225 233 247 260 235 216 221 243 234 250 247 273 291
322 316 307 299 293 286 278 270 261 256 253 245 240 239 236 237 238 240 241 247 258 251 247 236 222 207 203 210 215 218 229 235 235 240 220 228 238 230 238 239 257 270 280
331 328 322 312 305 295 282 272 258 247 241 240 235 245 248 236 240 240 242 246 247 240 216 204 196 192 197 198 212 219 221 230 234 236 242 236 229 212 228 242 256 264 264
346 341 334 326 319 310 296 282 254 227 224 231 229 227 211 231 233 239 242 240 227 207 199 196 196 193 198 199 204 211 228 246 235 220 209 212 218 235 251 247 255 263 272
1 360 358 348 332 303 284 256 221 200 188 204 204 204 217 218 222 216 205 207 212 205 200 188 185 184 184 198 211 229 231 210 183 182 210 227 234 229 234 253 265 267 274
11 15 15 10 357 350 341 183 165 166 184 193 199 205 212 179 175 174 176 173 162 156 177 179 166 169 186 201 202 192 181 178 186 204 235 236 240 255 268 273 270 276 280
26 27 32 30 26 25 31 148 158 163 178 182 178 175 161 154 147 149 146 136 128 128 130 136 144 148 154 149 150 154 178 200 187 198 219 250 273 299 292 287 285 278 274
42 41 45 46 46 55 50 93 129 142 141 124 115 111 114 116 116 126 134 130 126 118 115 113 113 112 110 103 98 105 99 152 179 230 253 293 294 297 307 294 267 283 312
59 59 59 63 66 69 81 107 107 108 108 104 102 103 108 106 108 117 121 121 117 113 108 105 101 98 93 89 83 75 76 74 81 209 254 316 305 320 317 320 297 300 302